Regional Weather Roundup
Issued by NWS

Home | Current Version | Previous Version | Text Only | Print | Product List | Glossary On
Versions: 1 2 3 4 5 6 7 8 9 10 11 12 13 14 15 16 17 18 19 20 21 22 23 24 25 26 27 28 29 30 31 32 33 34 35 36 37 38 39 40 41 42 43 44 45 46 47 48 49 50
000
ASUS43 KTOP 062308
RWRKS

WEATHER ROUNDUP FOR KANSAS
NATIONAL WEATHER SERVICE GOODLAND KS
500 PM CST SAT FEB 06 2016

NOTE:  "FAIR" INDICATES FEW OR NO CLOUDS BELOW 12,000 FEET WITH NO
SIGNIFICANT WEATHER AND/OR OBSTRUCTIONS TO VISIBILITY.

KSZ001>006-013>018-027>032-041>047-070000-
NORTHWEST KANSAS

CITY           SKY/WX    TMP DP  RH WIND       PRES   REMARKS
GOODLAND       CLOUDY    40  24  53 SW15      30.10F WCI  32
HAYS           SUNNY     43  25  49 SW12      30.15S
HILL CITY      CLOUDY    41  28  60 SW8       30.13S
RUSSELL        SUNNY     43  29  57 SW12      30.13F
$$

KSZ061>065-074>080-084>089-070000-
SOUTHWEST KANSAS

CITY           SKY/WX    TMP DP  RH WIND       PRES   REMARKS
DODGE CITY     CLOUDY    50  13  22 SW12      30.18F
ELKHART          N/A     57  12  17 SW5         N/A
GARDEN CITY    CLOUDY    53  15  22 SW13      30.15F
GREAT BEND     SUNNY     52  21  30 SW12      30.16F
LIBERAL        CLOUDY    55  14  19 SW12      30.18F
PRATT          SUNNY     49  19  30 SW12      30.19F
$$

KSZ066>073-081>083-090>101-070000-
SOUTHEAST KANSAS

CITY           SKY/WX    TMP DP  RH WIND       PRES   REMARKS
CHANUTE        CLEAR     50  29  44 SW13      30.23F
COFFEYVILLE    CLEAR     51  26  37 SW13      30.26F
HUTCHINSON     CLEAR     52  19  27 SW10      30.19F
MEDICINE LODGE   N/A     53  15  22 W7        30.21F
NEWTON         CLEAR     48  23  37 SW13      30.22F
PARSONS        CLEAR     51  28  41 SW8       30.25F
WICHITA INTL   PTCLDY    50  25  37 SW13      30.22F
WICHITA JABRA  CLEAR     48  24  39 SW12      30.21F
WICHITA MCCONL CLEAR     49  26  41 S16       30.22F
WINFIELD       CLEAR     49  26  41 SW10      30.26F
$$

KSZ007>012-019>026-033>040-048>060-102>105-070000-
NORTHEAST KANSAS

CITY           SKY/WX    TMP DP  RH WIND       PRES   REMARKS
CONCORDIA      CLOUDY    46  24  42 SW10      30.13F
EMPORIA        CLEAR     47  27  45 SW10      30.20F
LAWRENCE       CLEAR     48  28  46 SW13      30.20F
MANHATTAN      CLEAR     49  27  42 SW13      30.17F
MARYSVILLE     CLOUDY    46  28  49 SW12      30.13F
OLATHE IND     CLEAR     47  29  49 SW14      30.21F
OLATHE EXE     CLEAR     46  28  49 SW12      30.20F
SALINA         CLEAR     53  22  29 SW15      30.17F
TOPEKA BILLARD CLEAR     49  27  42 SW10      30.19F
TOPEKA FORBES  CLEAR     49  28  44 SW13      30.18F
$$



USA.gov is the U.S. government's official web portal to all federal, state and local government web resources and services.